Terug naar catalogus

FENGYUN 1C DEB

ActiefSSO
NORAD 36230·DEBRIS·🇨🇳 China

Gelanceerd May 10, 1999 vanaf Taiyuan Satellite Launch Center

Loading…

Volgende Passages (komende 24 uur)

TLE

VerouderendSource: Space-Track

Epoch: Sep 10, 2026, 01:33 UTC

1 36230U 99025DVF 26253.06483261  .00001156  00000-0  10405-2 0  9992
2 36230  99.5153 332.9970 0214630 152.5910 208.6756 13.76194439656176

Volg FENGYUN 1C DEB in realtime met AllMySat

Download on the App Store